STARLINK-36150

Last updated on Fri Dec 19 2025 00:02:09 GMT+0000 (Coordinated Universal Time)

1 67031U 25294B 25351.83335648 -.01265886 47803-3 -31741-2 0 9996 2 67031 42.9998 151.3199 0001778 280.5255 120.6122 15.94817296 2120
UTC large
Height (km)
Speed (km/s)
/
Latitude / Longitude
Inclination (degrees)
Orbital Period (minutes)
Azimuth
Elevation
Range (km)
Doppler Factor

Next 0 passes for location: London (51.5072 / 0.1276)

Sorry there are no passes over London.